Weather History for KTCL - November, 2013

Change the Weather History Date:

Tuesday, November 5, 2013

  Actual Average Record
Temperature  
Mean Temperature 62 °F 58 °F  
Max Temperature 70 °F 71 °F 85 °F (2003)
Min Temperature 54 °F 46 °F 21 °F (1952)
Degree Days  
Heating Degree Days 3 8  
Month to date heating degree days 36 36  
Since 1 July heating degree days 108 153  
Growing Degree Days 12 (Base 50)    
Moisture  
Dew Point 42 °F    
Average Humidity 55    
Maximum Humidity 69    
Minimum Humidity 40    
Precipitation  
Precipitation 0.00 in 0.12 in 1.19 in (2002)
Month to date precipitation 0.00 0.62  
Year to date precipitation 41.11 43.52  
Sea Level Pressure  
Sea Level Pressure 30.30 in    
Wind  
Wind Speed 6 mph (East)    
Max Wind Speed 13 mph    
Max Gust Speed 18 mph    
Visibility 10 miles    
Events      
T = Trace of Precipitation, MM = Missing Value Source: NWS Daily Summary

Daily Weather History Graph

Daily Weather History Graph

Search for Another Location

Airport or City:

Trip Planner

Search our weather history database for the weather conditions in past years. The results will help you decide how hot, cold, wet, or windy it might be!

Date:

Astronomy

Nov. 05, 2013 Rise Set
Actual Time 6:12 AM CST 4:55 PM CST
Civil Twilight 5:46 AM CST 5:20 PM CST
Nautical Twilight 5:17 AM CST 5:50 PM CST
Astronomical Twilight 4:48 AM CST 6:19 PM CST
Moon 8:22 AM CST (11/5) 7:00 PM CST (11/5)
Length of Visible Light 11h 34m
Length of Day
10h 42m
Waxing Crescent, 7% of the Moon is Illuminated
Nov 5
Waxing Crescent
Nov 9
First Quarter
Nov 17
Full
Nov 25
Last Quarter
Dec 2
New

Hourly Weather History & Observations

Time (CST) Temp. Dew Point Humidity Pressure Visibility Wind Dir Wind Speed Gust Speed Precip Events Conditions
12:53 AM 57.9 °F 41.0 °F 53% 30.33 in 10.0 mi Variable 6.9 mph - N/A   Mostly Cloudy
1:53 AM 55.9 °F 39.0 °F 53% 30.32 in 10.0 mi East 8.1 mph - N/A   Mostly Cloudy
2:53 AM 55.9 °F 37.0 °F 49% 30.32 in 10.0 mi East 9.2 mph - N/A   Overcast
3:53 AM 54.0 °F 35.1 °F 49% 30.32 in 10.0 mi Variable 3.5 mph - N/A   Clear
4:53 AM 55.0 °F 35.1 °F 47% 30.33 in 10.0 mi East 5.8 mph - N/A   Overcast
5:53 AM 55.0 °F 35.1 °F 47% 30.34 in 10.0 mi East 5.8 mph - N/A   Overcast
6:53 AM 55.0 °F 36.0 °F 49% 30.35 in 10.0 mi East 6.9 mph - N/A   Overcast
7:53 AM 55.9 °F 36.0 °F 47% 30.37 in 10.0 mi East 6.9 mph 17.3 mph N/A   Overcast
8:53 AM 59.0 °F 37.0 °F 44% 30.37 in 10.0 mi ESE 8.1 mph 16.1 mph N/A   Overcast
9:53 AM 61.0 °F 39.0 °F 44% 30.36 in 10.0 mi East 6.9 mph - N/A   Overcast
10:53 AM 64.9 °F 39.9 °F 40% 30.35 in 10.0 mi East 9.2 mph - N/A   Overcast
11:53 AM 66.9 °F 43.0 °F 42% 30.32 in 10.0 mi ESE 9.2 mph - N/A   Overcast
12:53 PM 66.9 °F 44.1 °F 44% 30.30 in 10.0 mi ESE 6.9 mph - N/A   Overcast
1:53 PM 69.1 °F 46.0 °F 44% 30.27 in 10.0 mi ESE 9.2 mph - N/A   Mostly Cloudy
2:53 PM 69.1 °F 48.0 °F 47% 30.25 in 10.0 mi Variable 3.5 mph - N/A   Mostly Cloudy
3:53 PM 70.0 °F 48.0 °F 46% 30.24 in 10.0 mi East 5.8 mph - N/A   Clear
4:53 PM 68.0 °F 48.9 °F 50% 30.23 in 10.0 mi ESE 4.6 mph - N/A   Clear
5:53 PM 61.0 °F 50.0 °F 67% 30.25 in 10.0 mi NNE 3.5 mph - N/A   Clear
6:53 PM 61.0 °F 50.0 °F 67% 30.25 in 10.0 mi ENE 5.8 mph - N/A   Clear
7:53 PM 62.1 °F 48.9 °F 62% 30.26 in 10.0 mi ENE 4.6 mph - N/A   Overcast
8:53 PM 63.0 °F 45.0 °F 52% 30.26 in 10.0 mi ESE 5.8 mph - N/A   Overcast
9:53 PM 62.1 °F 44.1 °F 52% 30.25 in 10.0 mi East 4.6 mph - N/A   Clear
10:53 PM 62.1 °F 43.0 °F 50% 30.25 in 10.0 mi ESE 8.1 mph - N/A   Clear
11:53 PM 60.1 °F 43.0 °F 53% 30.24 in 10.0 mi Variable 4.6 mph - N/A   Clear